Location: Sternwarte_Laufen
(47.9344°N, 12.9346°E)
Time: 02:20:26
(UTC+02:00)

ISS - Pass Details

Date: 21 July 2018
Orbit: 402 x 408 km, 51.6° (Epoch: 17 July)

Event Time Altitude Azimuth Distance (km) Brightness Sun altitude
Rises 01:21:51 0° 282° (WNW) 2,327 0.2 -21.5°
Reaches altitude 10° 01:24:00 10° 290° (WNW) 1,467 -0.8 -21.5°
Maximum altitude 01:27:09 41° 3° (N) 601 -2.5 -21.5°
Drops below altitude 10° 01:30:18 10° 75° (ENE) 1,469 -0.8 -21.5°
Sets 01:32:27 0° 83° (E) 2,330 0.2 -21.4°
